WZZ272Y GCLP-LPMA

Flight info

Callsign WZZ272Y
Flight time 1h 13m
Altitude 38000
Route BIMBO DCT EKNOT
Aircraft A20N/M-SDE2E3FGHIRWXY/LB1

Departure

Time 2026-05-05 05:58
Airport Gran Canaria Airport (GCLP)

Arrival

Time 2026-05-05 07:12
Airport Cristiano Ronaldo International Airport (LPMA)
Time Latitude Longitude Altitude Speed Heading
2026-05-05 05:31 27.93381 -15.39029 88 ft 0 kts 291°
2026-05-05 05:45 27.93375 -15.39011 88 ft 4 kts 291°
2026-05-05 05:46 27.93366 -15.38983 86 ft 3 kts 290°
2026-05-05 05:46 27.93359 -15.38958 88 ft 4 kts 269°
2026-05-05 05:46 27.93367 -15.38932 87 ft 4 kts 217°
2026-05-05 05:46 27.93390 -15.38919 83 ft 3 kts 200°
2026-05-05 05:47 27.93393 -15.38918 86 ft 0 kts 201°
2026-05-05 05:48 27.93381 -15.38923 85 ft 5 kts 201°
2026-05-05 05:49 27.93307 -15.38956 85 ft 16 kts 202°
2026-05-05 05:49 27.93190 -15.39011 83 ft 20 kts 202°
2026-05-05 05:49 27.93050 -15.39070 85 ft 23 kts 201°
2026-05-05 05:49 27.92940 -15.39119 88 ft 13 kts 194°
2026-05-05 05:50 27.92863 -15.39077 88 ft 15 kts 120°
2026-05-05 05:50 27.92774 -15.39039 88 ft 17 kts 200°
2026-05-05 05:50 27.92666 -15.39089 90 ft 17 kts 200°
2026-05-05 05:50 27.92555 -15.39138 94 ft 19 kts 201°
2026-05-05 05:51 27.92423 -15.39196 96 ft 21 kts 201°
2026-05-05 05:51 27.92283 -15.39260 100 ft 22 kts 201°
2026-05-05 05:51 27.92123 -15.39305 95 ft 26 kts 178°
2026-05-05 05:51 27.92027 -15.39299 91 ft 0 kts 177°
2026-05-05 05:56 27.92005 -15.39298 90 ft 8 kts 178°
2026-05-05 05:57 27.91927 -15.39272 90 ft 16 kts 132°
2026-05-05 05:57 27.91971 -15.39199 84 ft 8 kts 21°
2026-05-05 05:57 27.91974 -15.39197 86 ft 1 kts 21°
2026-05-05 05:57 27.92097 -15.39144 86 ft 51 kts 21°
2026-05-05 05:58 27.92630 -15.38910 64 ft 110 kts 21°
2026-05-05 05:58 27.93484 -15.38531 57 ft 152 kts 21°
2026-05-05 05:58 27.94514 -15.38051 438 ft 158 kts 22°
2026-05-05 05:58 27.95509 -15.37559 1055 ft 155 kts 23°
2026-05-05 05:59 27.96525 -15.37073 1545 ft 163 kts 24°
2026-05-05 05:59 27.97635 -15.36613 1881 ft 179 kts 23°
2026-05-05 05:59 27.98857 -15.36082 2173 ft 199 kts 24°
2026-05-05 05:59 28.00240 -15.35461 2430 ft 227 kts 24°
2026-05-05 06:00 28.01803 -15.34789 2889 ft 252 kts 23°
2026-05-05 06:00 28.03493 -15.34076 3502 ft 265 kts 24°
2026-05-05 06:00 28.05222 -15.33329 3754 ft 268 kts 22°
2026-05-05 06:00 28.06988 -15.32583 3903 ft 269 kts 20°
2026-05-05 06:01 28.08723 -15.31866 3986 ft 264 kts 20°
2026-05-05 06:01 28.10457 -15.31140 4002 ft 266 kts 21°
2026-05-05 06:01 28.12166 -15.30410 4001 ft 266 kts 21°
2026-05-05 06:01 28.13894 -15.29664 4000 ft 265 kts 20°
2026-05-05 06:02 28.15677 -15.29092 4077 ft 269 kts 14°
2026-05-05 06:02 28.17505 -15.28582 4583 ft 273 kts 14°
2026-05-05 06:02 28.19360 -15.28052 5527 ft 276 kts 13°
2026-05-05 06:02 28.21242 -15.27510 6442 ft 282 kts 13°
2026-05-05 06:03 28.23160 -15.26959 7293 ft 287 kts 12°
2026-05-05 06:03 28.25112 -15.26398 8117 ft 293 kts 12°
2026-05-05 06:03 28.27103 -15.25828 8948 ft 298 kts 11°
2026-05-05 06:03 28.29135 -15.25248 9780 ft 304 kts 11°
2026-05-05 06:04 28.31226 -15.24749 10426 ft 312 kts 360°
2026-05-05 06:04 28.33422 -15.25040 10686 ft 326 kts 336°
2026-05-05 06:04 28.35422 -15.26317 11032 ft 334 kts 315°
2026-05-05 06:04 28.37048 -15.28196 11818 ft 333 kts 307°
2026-05-05 06:05 28.38567 -15.30194 12688 ft 335 kts 306°
2026-05-05 06:05 28.40121 -15.32183 13546 ft 338 kts 307°
2026-05-05 06:05 28.41738 -15.34147 14337 ft 342 kts 308°
2026-05-05 06:05 28.43416 -15.36105 15016 ft 348 kts 308°
2026-05-05 06:06 28.45111 -15.38039 15707 ft 352 kts 308°
2026-05-05 06:06 28.46856 -15.40014 16401 ft 356 kts 308°
2026-05-05 06:06 28.48626 -15.42014 17088 ft 360 kts 308°
2026-05-05 06:06 28.50410 -15.44030 17771 ft 364 kts 308°
2026-05-05 06:07 28.52216 -15.46075 18424 ft 368 kts 308°
2026-05-05 06:07 28.54039 -15.48140 19020 ft 371 kts 308°
2026-05-05 06:07 28.55980 -15.50120 19640 ft 382 kts 316°
2026-05-05 06:07 28.58337 -15.51620 20235 ft 398 kts 330°
2026-05-05 06:08 28.61066 -15.52471 20784 ft 415 kts 343°
2026-05-05 06:08 28.63940 -15.52959 21346 ft 420 kts 343°
2026-05-05 06:08 28.66847 -15.53449 21917 ft 423 kts 343°
2026-05-05 06:08 28.69771 -15.53947 22487 ft 427 kts 343°
2026-05-05 06:09 28.72722 -15.54455 23051 ft 430 kts 342°
2026-05-05 06:09 28.75648 -15.54964 23603 ft 433 kts 342°
2026-05-05 06:09 28.78638 -15.55485 24096 ft 435 kts 342°
2026-05-05 06:09 28.81641 -15.56009 24596 ft 437 kts 342°
2026-05-05 06:10 28.84657 -15.56536 25073 ft 440 kts 342°
2026-05-05 06:10 28.87686 -15.57066 25526 ft 442 kts 342°
2026-05-05 06:10 28.90740 -15.57600 25975 ft 445 kts 342°
2026-05-05 06:10 28.93814 -15.58139 26419 ft 447 kts 342°
2026-05-05 06:11 28.96902 -15.58680 26837 ft 450 kts 342°
2026-05-05 06:11 29.00013 -15.59225 27246 ft 453 kts 342°
2026-05-05 06:11 29.03140 -15.59774 27638 ft 456 kts 341°
2026-05-05 06:11 29.06282 -15.60326 28016 ft 459 kts 341°
2026-05-05 06:12 29.09451 -15.60883 28389 ft 462 kts 341°
2026-05-05 06:12 29.12631 -15.61443 28752 ft 464 kts 341°
2026-05-05 06:12 29.15792 -15.62000 29117 ft 466 kts 341°
2026-05-05 06:12 29.19011 -15.62567 29467 ft 469 kts 341°
2026-05-05 06:13 29.22246 -15.63137 29812 ft 471 kts 341°
2026-05-05 06:13 29.25489 -15.63709 30155 ft 473 kts 341°
2026-05-05 06:13 29.28754 -15.64285 30476 ft 475 kts 341°
2026-05-05 06:13 29.32026 -15.64861 30802 ft 476 kts 341°
2026-05-05 06:14 29.35305 -15.65440 31126 ft 478 kts 341°
2026-05-05 06:14 29.38587 -15.66025 31516 ft 477 kts 341°
2026-05-05 06:14 29.41862 -15.66611 31941 ft 476 kts 340°
2026-05-05 06:14 29.45124 -15.67196 32361 ft 474 kts 340°
2026-05-05 06:15 29.48379 -15.67780 32766 ft 473 kts 340°
2026-05-05 06:15 29.51622 -15.68363 33164 ft 471 kts 340°
2026-05-05 06:15 29.54859 -15.68944 33569 ft 469 kts 339°
2026-05-05 06:15 29.58079 -15.69523 33970 ft 468 kts 339°
2026-05-05 06:16 29.61298 -15.70103 34299 ft 467 kts 339°
2026-05-05 06:16 29.64503 -15.70681 34581 ft 466 kts 339°
2026-05-05 06:16 29.67707 -15.71260 34835 ft 467 kts 339°
2026-05-05 06:16 29.70922 -15.71841 35093 ft 467 kts 339°
2026-05-05 06:17 29.74125 -15.72421 35335 ft 467 kts 339°
2026-05-05 06:17 29.77344 -15.73004 35574 ft 467 kts 339°
2026-05-05 06:17 29.80511 -15.73577 35808 ft 467 kts 339°
2026-05-05 06:17 29.83721 -15.74159 36035 ft 467 kts 339°
2026-05-05 06:18 29.86936 -15.74741 36261 ft 467 kts 339°
2026-05-05 06:18 29.90152 -15.75324 36480 ft 467 kts 340°
2026-05-05 06:18 29.93361 -15.75907 36699 ft 467 kts 340°
2026-05-05 06:18 29.96581 -15.76491 36912 ft 467 kts 340°
2026-05-05 06:19 29.99791 -15.77074 37122 ft 467 kts 340°
2026-05-05 06:19 30.02997 -15.77657 37325 ft 466 kts 340°
2026-05-05 06:19 30.06198 -15.78239 37536 ft 466 kts 340°
2026-05-05 06:19 30.09402 -15.78822 37728 ft 466 kts 340°
2026-05-05 06:20 30.12601 -15.79404 37914 ft 465 kts 340°
2026-05-05 06:20 30.15805 -15.79988 38048 ft 466 kts 340°
2026-05-05 06:20 30.21116 -15.80955 38051 ft 464 kts 340°
2026-05-05 06:21 30.28521 -15.82307 38051 ft 463 kts 340°
2026-05-05 06:21 30.34892 -15.83471 38055 ft 463 kts 341°
2026-05-05 06:22 30.41256 -15.84636 38054 ft 463 kts 341°
2026-05-05 06:22 30.46586 -15.85612 38055 ft 463 kts 341°
2026-05-05 06:23 30.52907 -15.86772 38055 ft 462 kts 341°
2026-05-05 06:23 30.59265 -15.87939 38056 ft 462 kts 341°
2026-05-05 06:24 30.65623 -15.89108 38051 ft 462 kts 342°
2026-05-05 06:24 30.71913 -15.90266 38051 ft 462 kts 342°
2026-05-05 06:25 30.78318 -15.91447 38045 ft 462 kts 342°
2026-05-05 06:25 30.84673 -15.92619 38052 ft 462 kts 342°
2026-05-05 06:26 30.90985 -15.93786 38048 ft 462 kts 342°
2026-05-05 06:26 30.97344 -15.94963 38051 ft 462 kts 343°
2026-05-05 06:27 31.06888 -15.96732 38051 ft 463 kts 343°
2026-05-05 06:28 31.13261 -15.97915 38055 ft 463 kts 343°
2026-05-05 06:28 31.19627 -15.99099 38060 ft 464 kts 343°
2026-05-05 06:29 31.26001 -16.00285 38064 ft 464 kts 344°
2026-05-05 06:29 31.32375 -16.01473 38060 ft 464 kts 344°
2026-05-05 06:30 31.38715 -16.02656 38074 ft 464 kts 344°
2026-05-05 06:30 31.44975 -16.04271 38074 ft 457 kts 336°
2026-05-05 06:31 31.51070 -16.06396 38075 ft 457 kts 337°
2026-05-05 06:31 31.57181 -16.08502 38072 ft 457 kts 337°
2026-05-05 06:32 31.63291 -16.10617 38066 ft 457 kts 337°
2026-05-05 06:32 31.69385 -16.12732 38070 ft 457 kts 337°
2026-05-05 06:33 31.75477 -16.14851 38070 ft 457 kts 338°
2026-05-05 06:33 31.81565 -16.16970 38010 ft 455 kts 338°
2026-05-05 06:33 31.84592 -16.18025 37578 ft 454 kts 338°
2026-05-05 06:34 31.87627 -16.19086 36855 ft 456 kts 338°
2026-05-05 06:34 31.90684 -16.20157 35982 ft 460 kts 339°
2026-05-05 06:34 31.93767 -16.21239 35072 ft 466 kts 340°
2026-05-05 06:34 31.96886 -16.22333 34239 ft 468 kts 340°
2026-05-05 06:35 32.00010 -16.23429 33372 ft 469 kts 341°
2026-05-05 06:35 32.03097 -16.24511 32494 ft 469 kts 341°
2026-05-05 06:35 32.06264 -16.25624 31574 ft 470 kts 342°
2026-05-05 06:35 32.09367 -16.26715 30694 ft 470 kts 342°
2026-05-05 06:36 32.12503 -16.27817 29723 ft 471 kts 343°
2026-05-05 06:36 32.15650 -16.28918 28797 ft 470 kts 342°
2026-05-05 06:36 32.18773 -16.30012 28054 ft 466 kts 342°
2026-05-05 06:36 32.21870 -16.31057 27357 ft 461 kts 343°
2026-05-05 06:37 32.24942 -16.32069 26676 ft 456 kts 343°
2026-05-05 06:37 32.27987 -16.33070 26009 ft 452 kts 343°
2026-05-05 06:37 32.31006 -16.34068 25342 ft 448 kts 342°
2026-05-05 06:37 32.33999 -16.35061 24689 ft 444 kts 342°
2026-05-05 06:38 32.36962 -16.36047 24072 ft 440 kts 342°
2026-05-05 06:38 32.39897 -16.37027 23416 ft 436 kts 342°
2026-05-05 06:38 32.42817 -16.38002 22712 ft 432 kts 342°
2026-05-05 06:38 32.45703 -16.38966 22038 ft 428 kts 342°
2026-05-05 06:39 32.48556 -16.39920 21362 ft 424 kts 342°
2026-05-05 06:39 32.51383 -16.40867 20697 ft 421 kts 342°
2026-05-05 06:39 32.54189 -16.41809 20057 ft 417 kts 341°
2026-05-05 06:39 32.56974 -16.42745 19446 ft 414 kts 341°
2026-05-05 06:40 32.59738 -16.43675 18858 ft 411 kts 341°
2026-05-05 06:40 32.62449 -16.44588 18233 ft 409 kts 341°
2026-05-05 06:40 32.65210 -16.45523 17583 ft 405 kts 341°
2026-05-05 06:40 32.67851 -16.46417 16993 ft 401 kts 341°
2026-05-05 06:41 32.70539 -16.47321 16499 ft 394 kts 342°
2026-05-05 06:41 32.73120 -16.48187 16381 ft 377 kts 341°
2026-05-05 06:41 32.75607 -16.49024 16284 ft 369 kts 341°
2026-05-05 06:41 32.78002 -16.50138 16167 ft 371 kts 328°
2026-05-05 06:42 32.80089 -16.51900 16074 ft 365 kts 314°
2026-05-05 06:42 32.81768 -16.54130 16061 ft 361 kts 303°
2026-05-05 06:42 32.82889 -16.56760 16060 ft 357 kts 284°
2026-05-05 06:42 32.83186 -16.59663 16059 ft 354 kts 265°
2026-05-05 06:43 32.82625 -16.62492 16057 ft 352 kts 245°
2026-05-05 06:43 32.81275 -16.64912 16056 ft 353 kts 226°
2026-05-05 06:43 32.79297 -16.66635 16051 ft 356 kts 206°
2026-05-05 06:43 32.76946 -16.67451 16048 ft 360 kts 188°
2026-05-05 06:44 32.74438 -16.67682 16046 ft 361 kts 187°
2026-05-05 06:44 32.71969 -16.68129 16049 ft 359 kts 194°
2026-05-05 06:44 32.69580 -16.68967 16047 ft 358 kts 201°
2026-05-05 06:44 32.67286 -16.70082 16048 ft 357 kts 205°
2026-05-05 06:45 32.65137 -16.71552 16050 ft 356 kts 220°
2026-05-05 06:45 32.63524 -16.73752 16048 ft 356 kts 239°
2026-05-05 06:45 32.62637 -16.76478 16049 ft 357 kts 259°
2026-05-05 06:45 32.62583 -16.79415 16048 ft 360 kts 278°
2026-05-05 06:46 32.63372 -16.82223 16023 ft 360 kts 297°
2026-05-05 06:46 32.64908 -16.84526 15935 ft 354 kts 317°
2026-05-05 06:46 32.66989 -16.86000 15823 ft 346 kts 339°
2026-05-05 06:46 32.69318 -16.86445 15691 ft 337 kts
2026-05-05 06:47 32.71552 -16.85819 15566 ft 326 kts 25°
2026-05-05 06:47 32.73317 -16.84280 15430 ft 313 kts 50°
2026-05-05 06:47 32.74365 -16.82109 15302 ft 298 kts 76°
2026-05-05 06:47 32.74583 -16.79739 15118 ft 284 kts 98°
2026-05-05 06:48 32.74203 -16.77463 14766 ft 279 kts 110°
2026-05-05 06:48 32.73569 -16.75293 14381 ft 277 kts 110°
2026-05-05 06:48 32.73079 -16.73077 13997 ft 277 kts 103°
2026-05-05 06:48 32.72807 -16.70822 13618 ft 275 kts 99°
2026-05-05 06:49 32.72521 -16.68588 13217 ft 272 kts 104°
2026-05-05 06:49 32.71973 -16.66451 12808 ft 268 kts 116°
2026-05-05 06:49 32.71071 -16.64538 12408 ft 264 kts 129°
2026-05-05 06:49 32.69834 -16.62951 12009 ft 260 kts 143°
2026-05-05 06:50 32.68347 -16.61773 11615 ft 256 kts 156°
2026-05-05 06:50 32.66694 -16.61033 11217 ft 253 kts 168°
2026-05-05 06:50 32.64965 -16.60750 10823 ft 250 kts 181°
2026-05-05 06:50 32.63265 -16.60910 10448 ft 248 kts 192°
2026-05-05 06:51 32.61624 -16.61497 10066 ft 246 kts 204°
2026-05-05 06:51 32.60138 -16.62476 9678 ft 244 kts 216°
2026-05-05 06:51 32.58863 -16.63799 9285 ft 243 kts 228°
2026-05-05 06:51 32.57801 -16.65353 8912 ft 242 kts 231°
2026-05-05 06:52 32.56753 -16.66909 8545 ft 240 kts 231°
2026-05-05 06:52 32.55704 -16.68440 8207 ft 239 kts 230°
2026-05-05 06:52 32.54652 -16.69969 7850 ft 238 kts 230°
2026-05-05 06:52 32.53607 -16.71483 7498 ft 237 kts 230°
2026-05-05 06:53 32.52564 -16.72997 7180 ft 236 kts 230°
2026-05-05 06:53 32.51526 -16.74505 6851 ft 236 kts 230°
2026-05-05 06:53 32.50495 -16.76004 6546 ft 234 kts 230°
2026-05-05 06:53 32.49479 -16.77478 6233 ft 233 kts 230°
2026-05-05 06:54 32.48458 -16.78960 5925 ft 231 kts 230°
2026-05-05 06:54 32.47442 -16.80436 5625 ft 230 kts 230°
2026-05-05 06:54 32.46435 -16.81896 5325 ft 229 kts 230°
2026-05-05 06:54 32.45429 -16.83351 5051 ft 227 kts 230°
2026-05-05 06:55 32.44424 -16.84790 4746 ft 227 kts 229°
2026-05-05 06:55 32.43418 -16.86217 4460 ft 224 kts 229°
2026-05-05 06:55 32.42419 -16.87635 4150 ft 224 kts 229°
2026-05-05 06:55 32.41425 -16.89042 3866 ft 222 kts 229°
2026-05-05 06:56 32.40280 -16.90237 3524 ft 220 kts 204°
2026-05-05 06:56 32.38803 -16.90518 3222 ft 215 kts 169°
2026-05-05 06:56 32.37496 -16.89745 3137 ft 218 kts 135°
2026-05-05 06:56 32.36757 -16.88182 3045 ft 223 kts 102°
2026-05-05 06:57 32.36886 -16.86366 3039 ft 226 kts 68°
2026-05-05 06:57 32.37853 -16.84903 3033 ft 230 kts 34°
2026-05-05 06:57 32.39351 -16.84279 3047 ft 233 kts
2026-05-05 06:57 32.40977 -16.84173 3041 ft 232 kts
2026-05-05 06:58 32.42559 -16.83982 3039 ft 231 kts
2026-05-05 06:58 32.44122 -16.83589 3043 ft 229 kts 15°
2026-05-05 06:58 32.45653 -16.83049 3042 ft 230 kts 17°
2026-05-05 06:58 32.47230 -16.82955 3038 ft 230 kts 345°
2026-05-05 06:59 32.48603 -16.83871 3042 ft 230 kts 311°
2026-05-05 06:59 32.49339 -16.85519 3034 ft 227 kts 278°
2026-05-05 06:59 32.49196 -16.87353 3032 ft 226 kts 244°
2026-05-05 06:59 32.48236 -16.88764 3036 ft 221 kts 210°
2026-05-05 07:00 32.46810 -16.89387 3040 ft 220 kts 189°
2026-05-05 07:00 32.45312 -16.89700 3043 ft 217 kts 188°
2026-05-05 07:00 32.43826 -16.90060 3037 ft 218 kts 192°
2026-05-05 07:00 32.42366 -16.90532 3038 ft 216 kts 195°
2026-05-05 07:01 32.40904 -16.90924 3038 ft 217 kts 178°
2026-05-05 07:01 32.39481 -16.90402 3042 ft 216 kts 144°
2026-05-05 07:01 32.38553 -16.89004 3047 ft 222 kts 110°
2026-05-05 07:01 32.38449 -16.87201 3046 ft 227 kts 77°
2026-05-05 07:02 32.39218 -16.85601 3042 ft 228 kts 43°
2026-05-05 07:02 32.40610 -16.84685 3036 ft 232 kts 19°
2026-05-05 07:02 32.42160 -16.84167 3041 ft 232 kts 14°
2026-05-05 07:02 32.43713 -16.83694 3031 ft 228 kts 16°
2026-05-05 07:03 32.45219 -16.83171 3033 ft 230 kts 18°
2026-05-05 07:03 32.46781 -16.82853 3039 ft 229 kts 355°
2026-05-05 07:03 32.48374 -16.82890 3045 ft 230 kts
2026-05-05 07:03 32.49935 -16.83208 3034 ft 229 kts 332°
2026-05-05 07:04 32.51086 -16.84458 3038 ft 227 kts 298°
2026-05-05 07:04 32.51467 -16.86247 3037 ft 227 kts 264°
2026-05-05 07:04 32.50959 -16.87975 3032 ft 223 kts 230°
2026-05-05 07:04 32.49740 -16.89057 3039 ft 221 kts 196°
2026-05-05 07:05 32.48238 -16.89175 3040 ft 218 kts 170°
2026-05-05 07:05 32.46765 -16.88746 3034 ft 218 kts 156°
2026-05-05 07:05 32.45593 -16.87660 3041 ft 218 kts 123°
2026-05-05 07:05 32.45157 -16.85999 3039 ft 208 kts 89°
2026-05-05 07:06 32.45551 -16.84437 3046 ft 193 kts 57°
2026-05-05 07:06 32.46503 -16.83403 2894 ft 188 kts 27°
2026-05-05 07:06 32.47709 -16.82703 2749 ft 196 kts 27°
2026-05-05 07:06 32.48928 -16.81973 2477 ft 196 kts 29°
2026-05-05 07:07 32.50124 -16.81224 2212 ft 194 kts 29°
2026-05-05 07:07 32.51319 -16.80552 2079 ft 189 kts 19°
2026-05-05 07:07 32.52589 -16.80255 2051 ft 180 kts
2026-05-05 07:07 32.53782 -16.80258 2043 ft 163 kts 359°
2026-05-05 07:08 32.54826 -16.80303 2047 ft 139 kts
2026-05-05 07:08 32.55817 -16.80321 2055 ft 146 kts
2026-05-05 07:08 32.56818 -16.80327 2052 ft 142 kts
2026-05-05 07:08 32.57813 -16.80321 2059 ft 143 kts
2026-05-05 07:09 32.58468 -16.80320 2048 ft 141 kts
2026-05-05 07:09 32.59460 -16.80319 2026 ft 143 kts
2026-05-05 07:09 32.60448 -16.80320 1989 ft 143 kts
2026-05-05 07:09 32.61440 -16.80319 1875 ft 142 kts
2026-05-05 07:10 32.62749 -16.80320 1695 ft 142 kts
2026-05-05 07:10 32.63429 -16.80329 1447 ft 147 kts 359°
2026-05-05 07:10 32.64472 -16.80358 966 ft 152 kts 358°
2026-05-05 07:10 32.65500 -16.80360 646 ft 146 kts 359°
2026-05-05 07:11 32.66465 -16.80236 467 ft 134 kts
2026-05-05 07:11 32.67378 -16.80006 392 ft 134 kts 15°
2026-05-05 07:11 32.68218 -16.79467 423 ft 140 kts 41°
2026-05-05 07:11 32.68828 -16.78560 225 ft 143 kts 41°
2026-05-05 07:12 32.69475 -16.77821 180 ft 97 kts 44°
2026-05-05 07:12 32.69745 -16.77502 205 ft 26 kts 45°
2026-05-05 07:12 32.69875 -16.77347 212 ft 26 kts 45°
2026-05-05 07:12 32.69965 -16.77220 199 ft 16 kts 77°
2026-05-05 07:13 32.69892 -16.77167 203 ft 18 kts 180°
2026-05-05 07:13 32.69775 -16.77258 182 ft 21 kts 226°
2026-05-05 07:13 32.69677 -16.77381 181 ft 20 kts 225°
2026-05-05 07:13 32.69596 -16.77453 178 ft 5 kts 163°
2026-05-05 07:14 32.69576 -16.77416 177 ft 6 kts 128°
2026-05-05 07:14 32.69542 -16.77376 176 ft 5 kts 135°
2026-05-05 07:14 32.69541 -16.77375 176 ft 0 kts 135°